Regional Weather Roundup
Issued by NWS

Home | Current Version | Previous Version | Graphics & Text | Print | Product List | Glossary On
Versions: 1 2 3 4 5 6 7 8 9 10 11 12 13 14 15 16 17 18 19 20 21 22 23 24 25 26 27 28 29 30 31 32 33 34 35 36 37 38 39 40 41 42 43 44 45 46 47 48 49 50
000
ASUS43 KBIS 280002
RWRND

NORTH DAKOTA REGIONAL WEATHER ROUNDUP
NATIONAL WEATHER SERVICE BISMARCK ND
700 PM CDT MON JUL 27 2015

NOTE: "FAIR" INDICATES FEW OR NO CLOUDS BELOW 12,000 FEET WITH NO
SIGNIFICANT WEATHER AND/OR OBSTRUCTIONS TO VISIBILITY.


NDZ001>003-009>011-017-280100-
NORTHWEST NORTH DAKOTA

CITY           SKY/WX    TMP DP  RH WIND       PRES   REMARKS
WILLISTON      PTSUNNY   90  66  45 SE17G25   29.56F HX  92
6HR MIN TEMP:  85; 6HR MAX TEMP:  92;

MINOT          PTSUNNY   88  66  48 SE14      29.63F HX  90
MINOT AFB      PTSUNNY   87  72  61 SE12      29.62F HX  93
$$

NDZ018>021-031>035-040>046-280100-
SOUTHWEST NORTH DAKOTA

CITY           SKY/WX    TMP DP  RH WIND       PRES   REMARKS
BISMARCK       MOSUNNY   88  70  55 SE15G25   29.65R HX  93
6HR MIN TEMP:  86; 6HR MAX TEMP:  93;

DICKINSON      CLOUDY    83  64  52 SE18G25   29.60F
GARRISON         N/A     84  68  58 SE13      29.62F
6HR MIN TEMP:  80; 6HR MAX TEMP:  87;

HETTINGER ARPT CLOUDY    83  62  49 SE12G25   29.62F
$$

NDZ004>008-012>016-024-026-027-054-280100-
NORTHEAST NORTH DAKOTA

CITY           SKY/WX    TMP DP  RH WIND       PRES   REMARKS
GRAND FORKS    SUNNY     85  71  63 SE17G25   29.74F HX  90
DEVILS LAKE    SUNNY     82  70  65 SE17      29.72S
$$

NDZ022-023-025-028>030-036>039-047>053-280100-
SOUTHEAST NORTH DAKOTA

CITY           SKY/WX    TMP DP  RH WIND       PRES   REMARKS
FARGO          SUNNY     88  70  55 SE18G26   29.76S HX  93
6HR MIN TEMP:  84; 6HR MAX TEMP:  91;

JAMESTOWN      MOSUNNY   87  75  67 SE14G24   29.72S HX  96
$$



USA.gov is the U.S. government's official web portal to all federal, state and local government web resources and services.